[[{"header":{"parameterUnit":"m.s-1","parameterCategory":1,"la1":30.2992,"la2":30.254,"lo1":-89.0895,"lo2":-89.0443,"dy":0.0025,"dx":0.0025,"nx":19,"ny":19,"refTime":"2026-04-19T03:00:00:Z","depth":0,"parameterNumber":2,"parameterNumberName":"U-component_of_WINDS"},"data":[0,0,0,-2.9504,-2.9507,-2.9647,-2.9647,-2.9862,-2.9864,0,0,0,0,0,0,0,0,0,0,0,-2.9485,-2.9488,-2.9503,-2.9508,-2.9647,-2.9647,-2.9862,-2.9864,0,0,0,0,0,0,0,0,0,0,0,-2.9484,-2.9487,-2.949,-2.9508,-2.9647,-2.9647,-2.9861,-2.9743,0,0,0,0,0,0,0,0,0,0,-2.9601,-2.9607,-2.9486,-2.949,-2.9509,-2.9647,-2.9647,-2.9737,-2.975,-2.9815,0,-2.9879,0,-2.9875,-2.9881,-2.9882,0,0,0,-2.9491,-2.9595,-2.9612,-2.949,-2.9511,-2.9646,-2.9579,-2.9744,-2.9759,-2.9833,-2.9881,-2.9888,-2.9879,-2.9883,-2.9884,-3.0314,-3.0317,0,0,-2.9483,-2.9523,-2.9602,-2.9623,-2.9605,-2.9575,-2.9584,-2.9753,-2.9808,-2.9882,-2.9893,-2.9882,-2.9884,-2.9886,-3.0311,-3.0315,0,0,0,-2.9472,-2.9518,-2.953,-2.9616,-2.9638,-2.9579,-2.9589,-2.98,-2.98,-2.9895,-2.9885,-2.9886,-2.9889,-3.0308,-3.0313,-3.0493,0,0,0,-2.9467,-2.9512,-2.9527,-2.9553,-2.9636,-2.9721,-2.9634,-2.9789,-2.9807,-2.9884,-2.9886,-2.9891,-3.0305,-3.0311,-3.0481,-3.0572,0,0,0,-2.9468,-2.9512,-2.954,-2.9555,-2.9616,-2.9717,-2.9727,-2.9792,-2.9802,-2.9882,-2.9892,-3.0303,-3.031,-3.047,-3.0555,-3.0699,0,0,0,-2.9482,-2.9697,-2.9543,-2.9779,-2.9616,-2.9826,-2.9725,-2.988,-2.997,-2.9887,-3.0306,-3.0312,-3.0467,-3.0544,-3.0688,-3.0831,-3.0892,0,0,-2.9775,-2.9733,-2.9869,-2.9735,-2.9984,-2.9802,-3.0076,-3.0121,-3.0091,-3.0241,-3.0251,-3.0485,-3.0554,-3.0697,-3.122,-3.1269,0,0,0,-2.9976,-3.0074,-3.0131,-3.0219,-3.0258,-3.0299,-3.0296,-3.0313,-3.0438,-3.0177,-3.0572,-3.0612,-3.0695,-3.0761,-3.0803,-3.0872,-3.0344,-3.0343,-3.0342,-3.0451,-3.0401,-3.0623,-3.059,-3.0676,-3.0671,-3.0737,-3.0758,-3.0682,-3.0776,-3.0822,-3.1146,-3.1225,-3.1256,-3.1329,-3.089,-3.089,-3.0891,-3.0891,-3.088,-3.1013,-3.0905,-3.1083,-3.1029,-3.1176,-3.1179,-3.112,-3.125,-3.1107,-3.1177,-3.1029,-3.1312,-3.1373,-3.0904,-3.0902,-3.0901,-3.0899,-3.0898,-3.119,-3.1245,-3.126,-3.1381,-3.148,-3.1437,-3.1568,-3.1512,-3.1461,-3.153,-3.1574,-3.1571,-3.1564,-3.1554,-3.1555,-3.1556,-3.1557,-3.1558,-3.1559,-3.1507,-3.1517,-3.1634,-3.1693,-3.1741,-3.1799,-3.1794,-3.184,-3.1878,-3.1827,-3.1827,-3.1745,-3.1347,-3.1251,-3.1576,-3.1573,-3.1571,-3.1569,-3.1568,-3.1967,-3.1854,-3.2035,-3.2084,-3.2147,-3.225,-3.2175,-3.2275,-3.2305,-3.2371,-3.2271,-3.1985,-3.1939,-3.1905,-3.1825,-3.2279,-3.2279,-3.2279,-3.2279,-3.2232,-3.2201,-3.2374,-3.2456,-3.2529,-3.2481,-3.2687,-3.2684,-3.2664,-3.2679,-3.2604,-3.2492,-3.2459,-3.2433,-3.2387,-3.2312,-3.288,-3.288,-3.2881,-3.2513,-3.2487,-3.2675,-3.2653,-3.2697,-3.2737,-3.293,-3.3028,-3.298,-3.2904,-3.2691,-3.2666,-3.2483,-3.2426,-3.235,-3.2281,-3.2142,0,0]},{"header":{"parameterUnit":"m.s-1","parameterCategory":1,"la1":30.2992,"la2":30.254,"lo1":-89.0895,"lo2":-89.0443,"dy":0.0025,"dx":0.0025,"nx":19,"ny":19,"refTime":"2026-04-19T03:00:00:Z","depth":0,"parameterNumber":3,"parameterNumberName":"V-component_of_WINDS"},"data":[0,0,0,-5.5363,-5.5367,-5.5543,-5.5544,-5.5784,-5.5786,0,0,0,0,0,0,0,0,0,0,0,-5.5324,-5.5326,-5.5362,-5.5367,-5.5543,-5.5544,-5.5784,-5.5786,0,0,0,0,0,0,0,0,0,0,0,-5.5323,-5.5326,-5.5328,-5.5368,-5.5543,-5.5544,-5.5783,-5.5644,0,0,0,0,0,0,0,0,0,0,-5.547,-5.5448,-5.5325,-5.5328,-5.5369,-5.5543,-5.5544,-5.5637,-5.5652,-5.5712,0,-5.5772,0,-5.5783,-5.5804,-5.5805,0,0,0,-5.5356,-5.5435,-5.5471,-5.5329,-5.5371,-5.5543,-5.5461,-5.5645,-5.5663,-5.5733,-5.5775,-5.5784,-5.5787,-5.5805,-5.5807,-5.6195,-5.6197,0,0,-5.5347,-5.5362,-5.5459,-5.5483,-5.5462,-5.5455,-5.5466,-5.5656,-5.5702,-5.5776,-5.5789,-5.5791,-5.5807,-5.5809,-5.6193,-5.6195,0,0,0,-5.5326,-5.5356,-5.5386,-5.5474,-5.5505,-5.546,-5.5473,-5.5693,-5.5702,-5.5791,-5.5794,-5.5809,-5.5812,-5.619,-5.6194,-5.6325,0,0,0,-5.532,-5.5344,-5.5383,-5.5394,-5.5502,-5.5602,-5.5507,-5.5689,-5.571,-5.5793,-5.5809,-5.5814,-5.6187,-5.6192,-5.6316,-5.6385,0,0,0,-5.5308,-5.5342,-5.5373,-5.5394,-5.5471,-5.5599,-5.5618,-5.5693,-5.5712,-5.5805,-5.5815,-5.6186,-5.6191,-5.6308,-5.6371,-5.6491,0,0,0,-5.5299,-5.5486,-5.5375,-5.5585,-5.547,-5.568,-5.5617,-5.5772,-5.5867,-5.581,-5.6188,-5.6193,-5.6305,-5.6363,-5.6483,-5.6596,-5.6644,0,0,-5.5544,-5.5516,-5.5638,-5.5544,-5.5778,-5.5652,-5.5904,-5.5974,-5.5967,-5.6118,-5.6127,-5.6319,-5.637,-5.6489,-5.6911,-5.695,0,0,0,-5.5721,-5.5809,-5.5867,-5.5961,-5.6021,-5.6077,-5.6108,-5.6133,-5.6261,-5.6049,-5.6394,-5.6424,-5.6493,-5.6546,-5.6579,-5.6637,-5.6219,-5.6218,-5.6217,-5.609,-5.6072,-5.6272,-5.6276,-5.6366,-5.6396,-5.6466,-5.6505,-5.6459,-5.6541,-5.6586,-5.6844,-5.6907,-5.6932,-5.6992,-5.6643,-5.6644,-5.6644,-5.6645,-5.6447,-5.6568,-5.6504,-5.6675,-5.6653,-5.6795,-5.6829,-5.6792,-5.6918,-5.6809,-5.6869,-5.6752,-5.6975,-5.7027,-5.6655,-5.6653,-5.6652,-5.6651,-5.665,-5.6687,-5.6742,-5.6772,-5.6903,-5.7005,-5.6999,-5.7125,-5.71,-5.7076,-5.7136,-5.718,-5.7178,-5.7172,-5.7159,-5.716,-5.716,-5.7161,-5.7162,-5.7162,-5.6925,-5.6954,-5.7064,-5.7143,-5.7198,-5.7267,-5.7297,-5.7349,-5.7401,-5.7372,-5.7372,-5.7318,-5.7001,-5.6922,-5.7176,-5.7174,-5.7172,-5.7171,-5.717,-5.7294,-5.7206,-5.7377,-5.7433,-5.7521,-5.7624,-5.759,-5.7698,-5.7737,-5.7799,-5.7731,-5.7501,-5.747,-5.7444,-5.7378,-5.7735,-5.7735,-5.7735,-5.7736,-5.7497,-5.7479,-5.7647,-5.7737,-5.7822,-5.7809,-5.7998,-5.8022,-5.8031,-5.8054,-5.7998,-5.7908,-5.7882,-5.7867,-5.7831,-5.7769,-5.8218,-5.8219,-5.8219,-5.7722,-5.7711,-5.788,-5.7891,-5.7958,-5.8014,-5.8191,-5.8294,-5.8286,-5.8238,-5.807,-5.805,-5.7905,-5.7859,-5.7808,-5.7754,-5.764,0,0]}]]